Weather History for KBTV - February, 2014

Change the Weather History Date:

Saturday, February 15, 2014

  Actual Average Record
Temperature  
Mean Temperature 26 °F 21 °F  
Max Temperature 33 °F 31 °F 54 °F (2006)
Min Temperature 19 °F 12 °F -26 °F (1943)
Degree Days  
Heating Degree Days 39 44  
Month to date heating degree days 687 674  
Since 1 July heating degree days 4903 4868  
Cooling Degree Days 0 0  
Month to date cooling degree days 0 0  
Year to date cooling degree days 0 0  
Moisture  
Dew Point 19 °F    
Average Humidity 76    
Maximum Humidity 92    
Minimum Humidity 59    
Precipitation  
Precipitation 0.01 in 0.06 in 1.27 in (1939)
Month to date precipitation 1.04 0.94  
Year to date precipitation 3.49 3.00  
Snow  
Snow 0.20 in 0.50 in 10.20 in (1990)
Month to date snowfall 21.4 9.0  
Since 1 July snowfall 55.6 53.4  
Snow Depth 11.00 in    
Sea Level Pressure  
Sea Level Pressure 29.78 in    
Wind  
Wind Speed 5 mph (North)    
Max Wind Speed 16 mph    
Max Gust Speed 21 mph    
Visibility 8 miles    
Events Snow    
T = Trace of Precipitation, MM = Missing Value Source: NWS Daily Summary

Daily Weather History Graph

Daily Weather History Graph

Search for Another Location

Airport or City:

Trip Planner

Search our weather history database for the weather conditions in past years. The results will help you decide how hot, cold, wet, or windy it might be!

Date:

Astronomy

Feb. 15, 2014 Rise Set
Actual Time 6:52 AM EST 5:21 PM EST
Civil Twilight 6:22 AM EST 5:51 PM EST
Nautical Twilight 5:48 AM EST 6:25 PM EST
Astronomical Twilight 5:15 AM EST 6:59 PM EST
Moon 6:23 PM EST (2/15) 6:46 AM EST (2/15)
Length of Visible Light 11h 28m
Length of Day
10h 28m
Full, 100% of the Moon is Illuminated
Feb 15
Full
Feb 22
Last Quarter
Mar 1
New
Mar 8
First Quarter
Mar 16
Full

Hourly Weather History & Observations

Time (EST) Temp. Windchill Dew Point Humidity Pressure Visibility Wind Dir Wind Speed Gust Speed Precip Events Conditions
12:54 AM 24.1 °F 19.7 °F 19.0 °F 81% 29.72 in 10.0 mi East 3.5 mph - N/A   Overcast
1:54 AM 23.0 °F - 19.0 °F 85% 29.74 in 10.0 mi Calm Calm - N/A   Mostly Cloudy
2:54 AM 21.0 °F 16.2 °F 17.1 °F 85% 29.77 in 10.0 mi SSE 3.5 mph - N/A   Overcast
3:54 AM 21.9 °F - 19.0 °F 89% 29.78 in 10.0 mi Calm Calm - N/A   Overcast
4:54 AM 23.0 °F - 19.0 °F 85% 29.79 in 10.0 mi Calm Calm - N/A   Overcast
5:54 AM 27.0 °F 21.6 °F 19.0 °F 72% 29.78 in 10.0 mi SSW 4.6 mph - N/A   Scattered Clouds
6:54 AM 23.0 °F - 18.0 °F 81% 29.80 in 10.0 mi Calm Calm - N/A   Mostly Cloudy
7:54 AM 23.0 °F - 19.0 °F 85% 29.81 in 10.0 mi Calm Calm - N/A   Overcast
8:54 AM 24.1 °F 19.7 °F 19.0 °F 81% 29.81 in 10.0 mi East 3.5 mph - N/A   Overcast
9:54 AM 27.0 °F - 19.9 °F 75% 29.81 in 10.0 mi Calm Calm - N/A   Mostly Cloudy
10:54 AM 30.9 °F - 21.0 °F 67% 29.81 in 10.0 mi Calm Calm - N/A   Overcast
11:54 AM 30.9 °F 24.3 °F 21.0 °F 67% 29.82 in 10.0 mi South 6.9 mph - N/A   Mostly Cloudy
12:54 PM 32.0 °F 24.8 °F 19.9 °F 61% 29.80 in 9.0 mi SSW 8.1 mph - N/A   Overcast
1:54 PM 32.0 °F 26.4 °F 21.0 °F 64% 29.78 in 8.0 mi SSW 5.8 mph - N/A   Overcast
2:54 PM 32.0 °F - 21.9 °F 66% 29.78 in 9.0 mi Calm Calm - 0.00 in   Overcast
3:54 PM 32.0 °F 26.4 °F 23.0 °F 69% 29.76 in 5.0 mi NW 5.8 mph - 0.00 in Snow Light Snow
4:16 PM 30.9 °F 23.5 °F 24.1 °F 76% 29.75 in 2.0 mi NW 8.1 mph - 0.00 in Snow Light Snow
4:38 PM 30.0 °F 22.4 °F 24.1 °F 79% 29.76 in 4.0 mi NW 8.1 mph - 0.00 in Snow Light Snow
4:54 PM 28.9 °F 20.4 °F 23.0 °F 78% 29.78 in 5.0 mi NW 9.2 mph - 0.00 in Snow Light Snow
5:20 PM 28.0 °F 18.6 °F 23.0 °F 81% 29.78 in 4.0 mi NNW 10.4 mph - 0.00 in Snow Light Snow
5:50 PM 26.6 °F 19.1 °F 21.2 °F 80% 29.77 in 4.0 mi North 6.9 mph - 0.00 in Snow Light Snow
5:54 PM 27.0 °F 18.0 °F 21.9 °F 81% 29.78 in 4.0 mi North 9.2 mph - 0.00 in Snow Light Snow
6:18 PM 26.1 °F 15.6 °F 21.0 °F 81% 29.77 in 6.0 mi North 11.5 mph - 0.00 in Snow Light Snow
6:54 PM 25.0 °F 14.8 °F 19.9 °F 81% 29.81 in 6.0 mi North 10.4 mph - 0.00 in Snow Light Snow
7:54 PM 24.1 °F 13.1 °F 18.0 °F 77% 29.81 in 2.5 mi North 11.5 mph - 0.00 in Snow Light Snow
8:11 PM 23.0 °F 12.4 °F 18.0 °F 81% 29.80 in 1.5 mi North 10.4 mph - 0.01 in Snow Light Snow
8:40 PM 21.9 °F 10.4 °F 17.1 °F 82% 29.78 in 2.0 mi North 11.5 mph - 0.01 in Snow Light Snow
8:51 PM 21.2 °F 8.9 °F 17.6 °F 86% 29.78 in 5.0 mi North 12.7 mph 20.7 mph 0.01 in Snow Light Snow
8:54 PM 21.9 °F 9.8 °F 17.1 °F 82% 29.80 in 7.0 mi North 12.7 mph 20.7 mph 0.01 in Snow Light Snow
9:54 PM 19.9 °F 6.7 °F 15.1 °F 81% 29.79 in 10.0 mi North 13.8 mph - 0.00 in   Overcast
10:54 PM 19.9 °F 9.3 °F 14.0 °F 78% 29.78 in 10.0 mi North 9.2 mph - N/A   Overcast
11:54 PM 19.0 °F 8.2 °F 14.0 °F 81% 29.79 in 10.0 mi North 9.2 mph - N/A   Overcast